[[{"header":{"parameterUnit":"m.s-1","parameterCategory":1,"la1":30.2991,"la2":30.254,"lo1":-89.0895,"lo2":-89.0444,"dy":0.0017,"dx":0.0017,"nx":28,"ny":28,"refTime":"2024-12-24T03:00:00:Z","depth":0,"parameterNumber":2,"parameterNumberName":"U-component_of_WINDS"},"data":[0,0,0,0,0,0,0,0,0,0,0,0,0,0,0,0,0,0,0,0,0,0,0,0,0,0,0,0,0,0,0,0,0,0,0,0,0,0,0,0,0,0,0,0,0,0,0,0,0,0,0,0,0,0,0,0,0,0,-3.9258,-3.9259,0,-3.9337,-3.9338,-3.9339,-3.9189,-3.9184,-3.9179,-3.9174,-3.9259,-3.9266,-3.9272,0,0,0,0,0,0,0,0,0,0,0,0,0,-3.8977,-3.8983,-3.9258,-3.9259,-3.926,-3.9337,-3.9338,-3.9339,-3.919,-3.9184,-3.9178,-3.9172,-3.9257,-3.9265,-3.9273,0,0,0,0,0,0,0,0,0,0,0,0,0,-3.9082,-3.8985,-3.9258,-3.9194,-3.9189,-3.9337,-3.9338,-3.934,-3.9191,-3.9184,-3.9176,-3.9169,-3.9254,-3.9264,-3.9274,-3.9488,0,0,-3.9306,-3.931,0,0,0,0,0,0,0,0,-3.9077,-3.9093,-3.9203,-3.9199,-3.9194,-3.9245,-3.927,-3.939,-3.9193,-3.9191,-3.9174,-3.9165,-3.9261,-3.927,-3.9301,-3.9492,-3.9496,-3.9307,-3.9313,-3.9318,-3.932,0,0,0,0,0,0,0,-3.907,-3.9089,-3.9289,-3.9204,-3.9199,-3.9162,-3.9169,-3.9292,-3.9267,-3.919,-3.9179,-3.9191,-3.9257,-3.9292,-3.9302,-3.9497,-3.9307,-3.9316,-3.9322,-3.9326,-3.9864,-3.9872,0,0,0,0,0,0,-3.907,-3.9084,-3.9287,-3.9292,-3.9115,-3.9173,-3.9181,-3.9236,-3.9265,-3.9262,-3.9197,-3.9183,-3.9278,-3.929,-3.9305,-3.9556,-3.9317,-3.9327,-3.9333,-3.9856,-3.9866,-3.9875,0,0,0,0,0,0,-3.9064,-3.9089,-3.9283,-3.9185,-3.9206,-3.9186,-3.925,-3.9242,-3.9277,-3.927,-3.9265,-3.9238,-3.9272,-3.929,-3.9443,-3.9557,-3.9332,-3.9341,-3.9847,-3.9859,-3.9871,-4.0061,0,0,0,0,0,0,-3.9057,-3.9088,-3.917,-3.9188,-3.9212,-3.9421,-3.9257,-3.9249,-3.9295,-3.9278,-3.9307,-3.9304,-3.9268,-3.9428,-3.9453,-3.9567,-3.9349,-3.9837,-3.9852,-3.9867,-4.0044,-4.0078,-4.0107,0,0,0,0,0,-3.9048,-3.9221,-3.9174,-3.92,-3.9313,-3.9428,-3.9442,-3.9395,-3.9305,-3.9386,-3.9381,-3.9303,-3.954,-3.9445,-3.9472,-3.9591,-3.9829,-3.9848,-3.9866,-4.003,-4.0071,-4.0106,0,0,0,0,0,0,-3.9219,-3.9222,-3.9171,-3.9355,-3.9392,-3.9402,-3.9503,-3.9441,-3.9505,-3.9487,-3.9427,-3.9435,-3.9599,-3.961,-3.9504,-3.9798,-3.9669,-3.9694,-3.9785,-3.9824,-3.9855,-3.985,-3.9358,0,0,0,0,0,-3.9277,-3.9369,-3.9368,-3.9531,-3.9551,-3.9525,-3.9573,-3.9533,-3.957,-3.9585,-3.9591,-3.963,-3.9713,-3.9769,-3.9845,-4.0044,-4.0048,-4.0139,-4.017,-4.0196,-4.0218,-4.0323,-4.0364,-3.9935,-3.9935,-3.9934,0,0,-3.9401,-3.9414,-3.9476,-3.9565,-3.9589,-3.9686,-3.9539,-3.9648,-3.9719,-3.9602,-3.9746,-3.9752,-3.9791,-3.9968,-4.0046,-3.9982,-4.0337,-4.0219,-4.024,-4.0248,-4.0346,-4.0387,-4.0423,-3.9947,-3.9945,-3.9943,0,0,-3.9675,-3.9694,-3.9831,-3.9858,-3.9895,-3.9875,-3.9908,-3.9927,-3.9927,-4.007,-3.9983,-4.0067,-4.0211,-4.0242,-4.0277,-4.056,-4.0491,-4.0586,-4.075,-4.0853,-4.0887,-4.0917,-4.1017,-4.1054,-4.0608,-4.0609,-4.0609,0,-3.9824,-3.9965,-3.991,-4.0025,-4.0066,-3.9962,-4.01,-4.0129,-4.019,-4.0221,-4.0147,-4.0324,-4.0344,-4.0526,-4.0594,-4.0626,-4.0662,-4.0583,-4.0886,-4.0916,-4.0942,-4.1038,-4.1076,-4.062,-4.0619,-4.0617,-4.0616,0,-4.0146,-4.0246,-4.0352,-4.0412,-4.0465,-4.0591,-4.0555,-4.0615,-4.0571,-4.0559,-4.0706,-4.0724,-4.0801,-4.0841,-4.08,-4.1018,-4.0976,-4.0896,-4.0766,-4.0996,-4.1084,-4.112,-4.0636,-4.0632,-4.0629,-4.0626,0,0,-4.0533,-4.0558,-4.0598,-4.0623,-4.0655,-4.0731,-4.0852,-4.0926,-4.0979,-4.1024,-4.1124,-4.1246,-4.1171,-4.1211,-4.1171,-4.1262,-4.1484,-4.117,-4.117,-4.1228,-4.1724,-4.1785,-4.1829,-4.1438,-4.1444,-4.145,-4.1721,0,-4.0805,-4.1011,-4.0964,-4.1168,-4.1259,-4.116,-4.1265,-4.1296,-4.1288,-4.1364,-4.1354,-4.1443,-4.1337,-4.136,-4.1445,-4.1439,-4.1583,-4.1419,-4.1531,-4.1535,-4.1525,-4.1875,-4.194,-4.2195,-4.1755,-4.1761,-4.1765,0,-4.115,-4.1206,-4.1419,-4.1435,-4.1471,-4.1566,-4.1629,-4.1703,-4.1736,-4.1723,-4.1766,-4.1708,-4.1828,-4.1695,-4.1858,-4.1748,-4.179,-4.1794,-4.1803,-4.1812,-4.1665,-4.1894,-4.2276,-4.2314,-4.1819,-4.1815,-4.1811,0,-4.141,-4.1539,-4.1683,-4.1707,-4.1729,-4.1798,-4.1811,-4.1836,-4.1883,-4.1938,-4.1967,-4.2037,-4.2075,-4.2129,-4.2091,-4.1998,-4.2261,-4.2125,-4.2254,-4.2256,-4.2315,-4.2312,-4.271,-4.2342,-4.2342,-4.2341,-4.234,0,-4.1719,-4.1854,-4.18,-4.1889,-4.2036,-4.1979,-4.2126,-4.2127,-4.215,-4.2237,-4.2156,-4.224,-4.2184,-4.2263,-4.2234,-4.2374,-4.2391,-4.2385,-4.2376,-4.2393,-4.2394,-4.242,-4.2402,-4.2351,-4.2349,-4.2347,-4.2345,0,-4.2036,-4.2005,-4.2155,-4.2163,-4.2167,-4.2276,-4.2282,-4.2364,-4.2348,-4.246,-4.2482,-4.2459,-4.2547,-4.2514,-4.2609,-4.2589,-4.2767,-4.2735,-4.2756,-4.2748,-4.2878,-4.2867,-4.3308,-4.3362,-4.296,-4.2963,-4.2967,0,-4.2235,-4.2336,-4.2353,-4.2405,-4.2423,-4.2508,-4.2554,-4.2502,-4.2554,-4.2598,-4.2675,-4.2755,-4.2818,-4.2963,-4.2955,-4.3027,-4.2995,-4.3145,-4.3006,-4.3019,-4.2998,-4.2992,-4.3002,-4.3173,-4.3178,-4.3182,-4.3185,0,-4.2593,-4.2572,-4.2642,-4.2706,-4.2764,-4.2813,-4.2854,-4.2901,-4.2851,-4.2913,-4.3002,-4.305,-4.3145,-4.3226,-4.329,-4.3303,-4.3237,-4.3228,-4.3262,-4.328,-4.3289,-4.3286,-4.2832,-4.3219,-4.3215,-4.3213,-4.3211,-4.321,-4.2857,-4.2941,-4.2966,-4.3046,-4.3071,-4.3111,-4.3188,-4.3181,-4.3254,-4.3326,-4.3291,-4.3394,-4.3422,-4.35,-4.3522,-4.3601,-4.3543,-4.3592,-4.3605,-4.3618,-4.3634,-4.3275,-4.3613,-4.3612,-4.3611,-4.361,-4.3609,0,-4.321,-4.322,-4.3294,-4.3353,-4.3417,-4.3346,-4.3388,-4.3445,-4.3536,-4.3568,-4.3629,-4.3731,-4.3808,-4.3805,-4.3877,-4.3941,-4.3912,-4.3962,-4.3957,-4.3961,-4.3682,-4.3646,-4.3984,-4.3984,-4.3984,-4.3984,-4.3984,-4.3984,-4.3401,-4.3539,-4.3521,-4.367,-4.368,-4.3779,-4.3808,-4.3845,-4.3869,-4.3985,-4.4049,-4.4046,-4.4063,-4.4135,-4.4203,-4.42,-4.423,-4.4292,-4.4278,-4.4018,-4.3981,-4.3945,-4.3911,-4.4299,-4.4299,-4.4549,-4.4551,-4.4553]},{"header":{"parameterUnit":"m.s-1","parameterCategory":1,"la1":30.2991,"la2":30.254,"lo1":-89.0895,"lo2":-89.0444,"dy":0.0017,"dx":0.0017,"nx":28,"ny":28,"refTime":"2024-12-24T03:00:00:Z","depth":0,"parameterNumber":3,"parameterNumberName":"V-component_of_WINDS"},"data":[0,0,0,0,0,0,0,0,0,0,0,0,0,0,0,0,0,0,0,0,0,0,0,0,0,0,0,0,0,0,0,0,0,0,0,0,0,0,0,0,0,0,0,0,0,0,0,0,0,0,0,0,0,0,0,0,0,0,-1.5481,-1.5481,0,-1.5496,-1.5496,-1.5497,-1.5503,-1.5503,-1.5503,-1.5503,-1.5517,-1.5518,-1.5518,0,0,0,0,0,0,0,0,0,0,0,0,0,-1.5454,-1.5454,-1.5481,-1.5481,-1.5481,-1.5496,-1.5496,-1.5497,-1.5503,-1.5503,-1.5503,-1.5503,-1.5517,-1.5518,-1.5518,0,0,0,0,0,0,0,0,0,0,0,0,0,-1.5467,-1.5455,-1.5481,-1.5486,-1.5487,-1.5496,-1.5496,-1.5497,-1.5503,-1.5503,-1.5503,-1.5503,-1.5517,-1.5518,-1.5518,-1.5524,0,0,-1.552,-1.5521,0,0,0,0,0,0,0,0,-1.5466,-1.5468,-1.5485,-1.5486,-1.5486,-1.5498,-1.5493,-1.5506,-1.5503,-1.5497,-1.5503,-1.5503,-1.5511,-1.5512,-1.5515,-1.5524,-1.5525,-1.552,-1.5521,-1.5521,-1.5521,0,0,0,0,0,0,0,-1.5466,-1.5467,-1.5487,-1.5485,-1.5486,-1.5487,-1.5489,-1.5495,-1.5504,-1.5497,-1.5498,-1.5499,-1.5511,-1.5514,-1.5515,-1.5525,-1.552,-1.5521,-1.5521,-1.5522,-1.5538,-1.5538,0,0,0,0,0,0,-1.5464,-1.5467,-1.5486,-1.5487,-1.5476,-1.5487,-1.5489,-1.5494,-1.5504,-1.5505,-1.5499,-1.55,-1.5513,-1.5515,-1.5516,-1.5522,-1.5521,-1.5522,-1.5522,-1.5538,-1.5538,-1.5538,0,0,0,0,0,0,-1.5463,-1.5466,-1.5486,-1.5477,-1.548,-1.5488,-1.5493,-1.5494,-1.5498,-1.5506,-1.5507,-1.5501,-1.5513,-1.5515,-1.5521,-1.5522,-1.5522,-1.5523,-1.5538,-1.5538,-1.5538,-1.5534,0,0,0,0,0,0,-1.5463,-1.5465,-1.5468,-1.5477,-1.548,-1.5492,-1.5493,-1.5495,-1.5499,-1.5499,-1.5508,-1.5509,-1.5513,-1.552,-1.5522,-1.5523,-1.5523,-1.5538,-1.5538,-1.5538,-1.5534,-1.5534,-1.5534,0,0,0,0,0,-1.5462,-1.5466,-1.5468,-1.5471,-1.5484,-1.5492,-1.5493,-1.5499,-1.5499,-1.5501,-1.5506,-1.5509,-1.5522,-1.5521,-1.5523,-1.5524,-1.5538,-1.5538,-1.5538,-1.5534,-1.5534,-1.5534,0,0,0,0,0,0,-1.5457,-1.5468,-1.547,-1.5478,-1.5484,-1.5493,-1.5496,-1.5499,-1.5504,-1.5504,-1.551,-1.5512,-1.5518,-1.5522,-1.552,-1.5529,-1.553,-1.553,-1.5526,-1.5526,-1.5526,-1.5525,-1.5524,0,0,0,0,0,-1.5457,-1.5463,-1.5472,-1.5478,-1.5481,-1.5488,-1.5492,-1.5495,-1.5501,-1.5504,-1.5509,-1.5515,-1.552,-1.5523,-1.5529,-1.5535,-1.5536,-1.5536,-1.5536,-1.5536,-1.5536,-1.5539,-1.5539,-1.5538,-1.5538,-1.5538,0,0,-1.5458,-1.5464,-1.5467,-1.5477,-1.5483,-1.5488,-1.549,-1.5496,-1.55,-1.5504,-1.5511,-1.5515,-1.5521,-1.5527,-1.553,-1.553,-1.5537,-1.5536,-1.5536,-1.5536,-1.5539,-1.5539,-1.5539,-1.5538,-1.5538,-1.5538,0,0,-1.546,-1.5466,-1.5471,-1.5476,-1.5484,-1.5488,-1.5489,-1.5497,-1.55,-1.5506,-1.551,-1.5514,-1.5523,-1.5527,-1.5531,-1.5533,-1.5536,-1.5535,-1.5534,-1.5536,-1.5536,-1.5536,-1.5536,-1.5536,-1.5535,-1.5535,-1.5535,0,-1.5459,-1.5468,-1.5474,-1.5479,-1.5483,-1.5487,-1.5492,-1.5496,-1.5505,-1.5507,-1.5508,-1.5519,-1.5523,-1.553,-1.553,-1.5533,-1.5534,-1.5534,-1.5536,-1.5536,-1.5536,-1.5536,-1.5536,-1.5535,-1.5535,-1.5535,-1.5535,0,-1.5466,-1.5472,-1.5475,-1.5483,-1.5487,-1.5492,-1.5498,-1.5501,-1.5504,-1.5508,-1.5513,-1.5519,-1.5525,-1.5527,-1.553,-1.5533,-1.5533,-1.5535,-1.5536,-1.5536,-1.5536,-1.5536,-1.5535,-1.5535,-1.5535,-1.5535,0,0,-1.5468,-1.5478,-1.5479,-1.5482,-1.549,-1.5494,-1.5498,-1.5505,-1.5507,-1.5512,-1.5516,-1.5523,-1.5524,-1.5528,-1.5531,-1.5533,-1.5533,-1.5534,-1.5534,-1.5533,-1.5536,-1.5535,-1.5535,-1.5535,-1.5535,-1.5535,-1.5535,0,-1.5471,-1.548,-1.5484,-1.5491,-1.5496,-1.5499,-1.5503,-1.5508,-1.5511,-1.5515,-1.5519,-1.5523,-1.5525,-1.5527,-1.5529,-1.5533,-1.5534,-1.5533,-1.5537,-1.5537,-1.5535,-1.5535,-1.5534,-1.5534,-1.5536,-1.5536,-1.5536,0,-1.5476,-1.5481,-1.5489,-1.5494,-1.5497,-1.55,-1.5505,-1.5509,-1.5514,-1.5516,-1.552,-1.5523,-1.5527,-1.5527,-1.5532,-1.5531,-1.5533,-1.5535,-1.5535,-1.5536,-1.5536,-1.5535,-1.5535,-1.5535,-1.5536,-1.5536,-1.5536,0,-1.5476,-1.5484,-1.5489,-1.5492,-1.5499,-1.5501,-1.5505,-1.5509,-1.5512,-1.5517,-1.5518,-1.5523,-1.5525,-1.5529,-1.5532,-1.5532,-1.5537,-1.5538,-1.5538,-1.5538,-1.5539,-1.5539,-1.5538,-1.554,-1.554,-1.554,-1.554,0,-1.5479,-1.5483,-1.5489,-1.5492,-1.5496,-1.5501,-1.5504,-1.5508,-1.5512,-1.5515,-1.5518,-1.5521,-1.5526,-1.5529,-1.5532,-1.5535,-1.5536,-1.5538,-1.5538,-1.5537,-1.5537,-1.5538,-1.5538,-1.554,-1.554,-1.554,-1.554,0,-1.5479,-1.5483,-1.5489,-1.5495,-1.5497,-1.5499,-1.5504,-1.5507,-1.551,-1.5514,-1.5515,-1.552,-1.5523,-1.5527,-1.5533,-1.5534,-1.5537,-1.5538,-1.5536,-1.5536,-1.5536,-1.5536,-1.5536,-1.5536,-1.5539,-1.5539,-1.5539,0,-1.5481,-1.5484,-1.549,-1.5492,-1.5495,-1.5499,-1.5502,-1.5506,-1.5508,-1.5513,-1.5515,-1.5519,-1.5522,-1.5528,-1.5532,-1.5535,-1.5536,-1.5536,-1.5537,-1.5535,-1.5536,-1.5535,-1.5535,-1.5536,-1.5536,-1.5536,-1.5536,0,-1.5483,-1.5484,-1.5488,-1.5493,-1.5496,-1.5499,-1.5503,-1.5505,-1.5509,-1.5512,-1.5516,-1.5518,-1.5523,-1.5527,-1.5531,-1.5533,-1.5535,-1.5536,-1.5536,-1.5535,-1.5533,-1.5533,-1.5535,-1.5536,-1.5536,-1.5536,-1.5536,-1.5536,-1.5483,-1.5486,-1.549,-1.5494,-1.5497,-1.55,-1.5502,-1.5506,-1.5509,-1.5513,-1.5515,-1.5519,-1.5522,-1.5528,-1.553,-1.5532,-1.5533,-1.5534,-1.5534,-1.5534,-1.5533,-1.5532,-1.5533,-1.5533,-1.5533,-1.5533,-1.5533,0,-1.5485,-1.5488,-1.5491,-1.5496,-1.5499,-1.55,-1.5504,-1.5506,-1.5509,-1.5512,-1.5515,-1.5519,-1.5522,-1.5526,-1.5529,-1.553,-1.5531,-1.5531,-1.5531,-1.5531,-1.5532,-1.5532,-1.553,-1.553,-1.553,-1.553,-1.553,-1.553,-1.5486,-1.549,-1.5492,-1.5497,-1.5499,-1.5503,-1.5505,-1.5507,-1.551,-1.5514,-1.5516,-1.5518,-1.5522,-1.5525,-1.5528,-1.5528,-1.5529,-1.5529,-1.553,-1.5531,-1.5531,-1.5531,-1.5531,-1.5529,-1.5529,-1.5528,-1.5528,-1.5528]}]]